Location: Butler
(32.5575°N, 84.2380°W)
Time: 21:12:52
(UTC+00:00)

N. Korean satellite - Pass Details

Date: 11 December 2021
Orbit: 447 x 490 km, 97.3° (Epoch: 27 January)

Event Time Altitude Azimuth Distance (km) Brightness Sun altitude
Exits shadow 11:00:04 17° 359° (N) 1,208 8.4 -18.2°
Maximum altitude 11:02:29 58° 283° (WNW) 531 6.3 -17.7°
Drops below altitude 10° 11:05:49 10° 204° (SSW) 1,582 9.1 -17.1°
Sets 11:07:52 0° 200° (SSW) 2,457 10.1 -16.6°
